Flag for Germany Weather past 2 weeks in Rottenburg am Neckar, Baden-Württemberg, Germany

Now
59 °F

Passing clouds.


Feels Like: 59 °F
Forecast: 58 / 85 °F
Wind: 1 mph from West

Location: Stuttgart-Echterdingen

Current Time: Aug 1, 2014 at 5:54:52 AM

Latest Report: Aug 1, 2014 at 4:00 AM


Visibility: 34 mi

Pressure: 29.94 "Hg

Humidity: 94%

Dew point: 57 °F

Location of Rottenburg am NeckarLocation

Historic Weather in Rottenburg am Neckar — Graph

°F

Rottenburg am Neckar temperature yesterday

Maximum temperature yesterday: 75 °F (at 5:00 PM)
Minimum temperature yesterday: 62 °F (at 7:00 AM)
Average temperature yesterday: 68 °F

Past Weeks' High & Low Weather Summary

 TemperatureHumidityPressure
High91 °F (Jul 19, 4:00 PM)100% (Jul 23, 6:00 AM)30.19 "Hg (Jul 23, 6:00 AM)
Low58 °F (Jul 18, 6:00 AM)25% (Jul 18, 3:00 PM)29.72 "Hg (Jul 28, 6:00 PM)
Average69 °F73%29.91 "Hg
* Reported Jul 17 4:00 AM — Aug 1 4:00 AM, Rottenburg am Neckar, Weather by CustomWeather, © 2014

Note: Actual official high and low records may vary slightly from our data, if they occured in-between our weather recording intervals... More about our weather records

Advertising

Rottenburg am Neckar weather history for previous 24 hours

 ConditionsComfort  
Time TempWeatherWind HumidityBarometerVisibility
4:00 AM
Aug 1
59 °FPassing clouds.1 mph94%29.94 "Hg34 mi
3:00 AM59 °FPassing clouds.1 mph92%29.95 "Hg34 mi
2:00 AM60 °FClear.1 mph89%29.95 "Hg31 mi
1:00 AM62 °FClear.No wind86%29.96 "Hg34 mi
12:00 AM63 °FClear.No wind84%29.96 "Hg34 mi
11:00 PM
Jul 31
65 °FClear.1 mph76%29.95 "Hg34 mi
10:00 PM68 °FPassing clouds.1 mph71%29.94 "Hg37 mi
9:00 PM70 °FPassing clouds.1 mph63%29.92 "Hg37 mi
8:00 PM72 °FPassing clouds.2 mph58%29.92 "Hg37 mi
7:00 PM75 °FScattered clouds.2 mph50%29.91 "Hg37 mi
6:00 PM74 °FScattered clouds.2 mph52%29.93 "Hg37 mi
5:00 PM75 °FScattered clouds.2 mph50%29.93 "Hg37 mi
4:00 PM74 °FScattered clouds.2 mph52%29.94 "Hg31 mi
3:00 PM73 °FPartly sunny.3 mph56%29.96 "Hg28 mi
2:00 PM74 °FPartly sunny.2 mph56%29.96 "Hg28 mi
1:00 PM71 °FPartly sunny.1 mph60%29.98 "Hg22 mi
12:00 PM71 °FScattered clouds.1 mph68%29.98 "Hg19 mi
11:00 AM69 °FScattered clouds.1 mph71%29.99 "Hg12 mi
10:00 AM66 °FOvercast.2 mph79%30.00 "Hg11 mi
9:00 AM64 °FOvercast.1 mph83%30.01 "Hg11 mi
8:00 AM62 °FOvercast.1 mph85%30.00 "Hg11 mi
7:00 AM62 °FPartly sunny.2 mph88%30.00 "Hg9 mi
6:00 AM62 °FOvercast.3 mph88%29.98 "Hg7 mi
5:00 AM62 °FPassing clouds.2 mph87%29.97 "Hg7 mi
Weather by CustomWeather, © 2014

See weather overviewHow to use our weather pages